Notices

What's New in latest Release from April 7th, 2021:

- Updated Glossary, including Speed of Maximum Gust, and Total Hourly Precipitation

- Updated national and regional climate services offices contacts and prices information

- Addition of station inventory lists for 1981-2010, 1971-2000, and 1961-1990 Normals.

If you haven't already, please take our survey and provide feedback about our website: https://eccc.sondage-survey.ca/f/LanguageSelection.aspx?s=442ca660-fcf1-47c0-95a9-59707d6fd709

Hourly Data Report for November 25, 2019

SHEARWATER RCS
NOVA SCOTIA
Current Station Operator: ECCC - MSC

44°37'47.000" N
63°30'48.000" W
24.00 m
8205092
71264
AAW

Download Data

Hourly Data (November 2019)
Hourly Data Report for November 25, 2019
TIME
LST
Temp Definition
°C
Dew Point Definition
°C
Rel Hum Definition
%
Precip. Amount Definition
mm

Wind Dir Definition
10's deg

Wind Spd Definition
km/h
Visibility Definition
km
Stn Press Definition
kPa
Hmdx Definition


Wind Chill Definition


Weather Definition


00:00 8.5 7.6 94 12.5 9 29   98.39     LegendNANA
01:00 9.6 8.8 95 2.1 9 31   98.25     LegendNANA
02:00 10.4 8.6 89 0.0 22 24   98.27     LegendNANA
03:00 8.9 7.5 92 0.2 17 10   98.31     LegendNANA
04:00 9.2 8.1 93 0.0 17 14   98.27     LegendNANA
05:00 9.5 8.5 94 0.0 18 17   98.21     LegendNANA
06:00 9.1 7.8 92 0.2 22 21   98.22     LegendNANA
07:00 8.8 7.6 92 0.0 21 18   98.24     LegendNANA
08:00 8.6 7.4 92 0.0 22 18   98.33     LegendNANA
09:00 8.9 7.7 92 0.0 22 21   98.40     LegendNANA
10:00 8.8 7.7 92 0.0 23 21   98.48     LegendNANA
11:00 6.6 3.5 81 0.0 27 21   98.73     LegendNANA
12:00 6.2 2.4 77 0.0 28 20   98.90     LegendNANA
13:00 5.4 1.1 74 0.0 29 25   99.05     LegendNANA
14:00 5.2 1.4 76 0.0 28 22   99.23     LegendNANA
15:00 5.2 1.0 74 0.0 29 26   99.42     LegendNANA
16:00 4.9 0.0 70 0.0 29 24   99.57     LegendNANA
17:00 4.5 -0.1 72 0.0 29 24   99.77     LegendNANA
18:00 4.2 -0.1 74 0.0 29 20   99.92     LegendNANA
19:00 3.7 -0.4 74 0.0 29 18   100.09     LegendNANA
20:00 3.6 -0.5 75 0.0 28 13   100.24     LegendNANA
21:00 3.4 0.1 79 0.0 26 16   100.35     LegendNANA
22:00 4.4 0.7 77 0.0 28 14   100.45     LegendNANA
23:00 5.0 0.6 73 0.0 28 15   100.54     LegendNANA

Notes on Data Quality.

Legend

  • E = Estimated
  • M = Missing
  • NA = Not Available*
  • [empty] = Indicates an unobserved value
Date modified: